Simultaneous Nadir Overpasses (SNOs) Predictions

Prediction of SNOs between AQUA and NOAA-19 Satellite Orbit:

Table of predicted SNOs for the next 14.0 days since TLE Epoch: 12/19/2020
Index Date (AQUA) Time (AQUA) Lat,Lon (AQUA) SZA (AQUA ) Date (NOAA-19) Time (NOAA-19) Lat,Lon (NOAA-19) SZA (NOAA-19 ) Distance(km) Time Diff (sec)
1 12/20/2020 22:01:59 79.13,-175.03 103.40 12/20/2020 22:00:52 79.04,-177.84 103.55 60.04 67
2 12/20/2020 22:51:29 -79.30, -8.44 76.38 12/20/2020 22:51:44 -79.30, -8.33 76.39 2.43 15
3 12/23/2020 04:25:14 79.29, 88.18 103.62 12/23/2020 04:24:58 79.29, 88.33 103.61 3.08 16
4 12/23/2020 05:14:44 -79.45,-105.23 76.16 12/23/2020 05:15:52 -79.46,-102.78 76.35 49.89 68
5 12/25/2020 09:58:57 -79.26,-175.04 76.46 12/25/2020 09:58:12 -79.25,-175.19 76.44 3.19 45
6 12/25/2020 10:48:25 79.29, -7.62 103.59 12/25/2020 10:49:12 79.29, -7.64 103.58 0.66 47
7 12/27/2020 15:32:42 79.26, -78.50 103.48 12/27/2020 15:31:29 79.18, -79.07 103.48 14.97 73
8 12/27/2020 16:22:09 -79.30, 88.91 76.47 12/27/2020 16:22:25 -79.27, 88.95 76.51 3.63 16
9 12/29/2020 21:55:53 79.27,-174.35 103.39 12/29/2020 21:55:40 79.27,-174.26 103.38 2.01 13
10 12/29/2020 22:45:24 -79.45, -7.94 76.36 12/29/2020 22:46:31 -79.48, -4.97 76.57 60.51 67
11 01/01/2021 03:29:36 -79.24, -77.57 76.81 01/01/2021 03:28:52 -79.24, -77.68 76.78 2.53 44



Historial Predications of SNOs between AQUA and NOAA-19
